This demonstration page uses our WeatherBlox Daily Observations layout. Learn more.

Left ArrowRight Arrow

34.74481, -87.66753

Hourly Observations for October 11, 2021

Temp ( °F °C ) Dew Point ( °F °C ) Humidity (%) Winds ( mph kmh ) Pressure ( in mb ) Visibility ( mi km ) Precip ( " mm )
12:53 am 00:53 Clear 70 21.1 65 18.3 84 84 SSE 6 9 29.86 1011 10 16 0.00 0.00
1:53 am 01:53 Clear 70 21.1 64 17.8 82 82 SE 8 13 29.87 1012 10 16 0.00 0.00
2:53 am 02:53 Clear 69 20.6 64 17.8 84 84 E 3 6 29.89 1012 10 16 0.00 0.00
3:53 am 03:53 Clear 68 20 63 17.2 84 84 E 5 7 29.89 1012 10 16 0.00 0.00
4:53 am 04:53 Clear 68 20 63 17.2 84 84 ESE 6 9 29.91 1013 10 16 0.00 0.00
5:53 am 05:53 Clear 68 20 64 17.8 87 87 SE 7 11 29.93 1013 10 16 0.00 0.00
6:53 am 06:53 Mostly Cloudy 69 20.6 64 17.8 84 84 S 5 7 29.95 1014 10 16 0.00 0.00
7:53 am 07:53 Sunny 70 21.1 64 17.8 82 82 SSE 8 13 29.94 1014 9 14 0.00 0.00
8:53 am 08:53 Mostly Cloudy 71 21.7 65 18.3 81 81 SSE 10 17 29.93 1013 10 16 0.00 0.00
9:53 am 09:53 Sunny 74 23.3 65 18.3 74 74 SSE 8 13 29.92 1013 10 16 0.00 0.00
10:53 am 10:53 Partly Cloudy 79 26.1 65 18.3 62 62 S 14 22 29.93 1013 10 16 0.00 0.00
11:53 am 11:53 Mostly Cloudy 81 27.2 64 17.8 57 57 S 15 24 29.91 1013 10 16 0.00 0.00
12:53 pm 12:53 Mostly Cloudy 84 28.9 64 17.8 51 51 S 15 24 29.88 1012 10 16 0.00 0.00
1:53 pm 13:53 Partly Cloudy 84 28.9 63 17.2 49 49 S 14 22 29.85 1011 10 16 0.00 0.00
2:53 pm 14:53 Mostly Cloudy 82 27.8 63 17.2 53 53 S 16 26 29.83 1010 10 16 0.00 0.00
3:53 pm 15:53 Sunny 84 28.9 63 17.2 49 49 S 13 20 29.81 1010 10 16 0.00 0.00
4:53 pm 16:53 Mostly Cloudy 82 27.8 63 17.2 53 53 S 13 20 29.84 1011 10 16 0.00 0.00
5:53 pm 17:53 Cloudy 80 26.7 64 17.8 58 58 S 7 11 29.86 1011 10 16 0.00 0.00
6:53 pm 18:53 Cloudy 78 25.6 65 18.3 64 64 SSE 12 19 29.85 1011 10 16 0.00 0.00
7:53 pm 19:53 Partly Cloudy 76 24.4 65 18.3 69 69 SSE 8 13 29.87 1012 10 16 0.00 0.00
8:53 pm 20:53 Mostly Cloudy 76 24.4 65 18.3 69 69 SSE 7 11 29.89 1012 10 16 0.00 0.00
9:53 pm 21:53 Mostly Clear 75 23.9 65 18.3 71 71 SSE 8 13 29.90 1012 10 16 0.00 0.00
10:53 pm 22:53 Mostly Cloudy 76 24.4 64 17.8 67 67 S 7 11 29.91 1013 10 16 0.00 0.00
11:53 pm 23:53 Mostly Cloudy 75 23.9 65 18.3 71 71 S 8 13 29.91 1013 10 16 0.00 0.00

Powered by AerisWeather